User: anonymous   Login
Location: Caltech
(34.1382°N, 118.1253°W)
Time: 13:47:29
(UTC-08:00)
Language:

Cosmos 1975 - Orbit

View from above orbital plane
View from above orbital plane
View from above satellite
View from above satellite

Ground track
Ground track

The orbit data is extracted from the following two-line orbital elements,

1 19573U 88093A   16340.94058742 +.00000699 +00000-0 +48514-4 0  9996
2 19573 082.5189 172.4196 0013121 234.0701 125.9309 15.03969816509624
Epoch (UTC): 05 December 2016 22:34:26
Eccentricity: 0.0013121
inclination: 82.5189°
perigee height: 545 km
apogee height: 564 km
right ascension of ascending node: 172.4196°
argument of perigee: 234.0701°
revolutions per day: 15.03969816
mean anomaly at epoch: 125.9309°
orbit number at epoch: 50962

The dashed part of the orbit path shows where the satellite is in the earth's shadow,  

DLR